Weather History for St. James, MN

Change the Weather History Date:

Wednesday, April 24, 2013

  Actual Average Record
Temperature  
Mean Temperature 42 °F -  
Max Temperature 53 °F 61 °F 83 °F (1990)
Min Temperature 30 °F 38 °F 21 °F (1967)
Degree Days  
Heating Degree Days 24    
Moisture  
Dew Point 26 °F    
Average Humidity 62    
Maximum Humidity 81    
Minimum Humidity 30    
Precipitation  
Precipitation 0.02 in - - ()
Sea Level Pressure  
Sea Level Pressure 30.03 in    
Wind  
Wind Speed 7 mph (WSW)    
Max Wind Speed 25 mph    
Max Gust Speed 36 mph    
Visibility 10 miles    
Events Rain    
Averages and records for this station are not official NWS values.
T = Trace of Precipitation, MM = Missing Value Source: NWS Daily Summary

Daily Weather History Graph

Daily Weather History Graph

Search for Another Location

Airport:

Trip Planner

Search our weather history database for the weather conditions in past years. The results will help you decide how hot, cold, wet, or windy it might be!

Date:

Astronomy

Apr. 24, 2013 Rise Set
Actual Time 6:19 AM CDT 8:13 PM CDT
Civil Twilight 5:49 AM CDT 8:44 PM CDT
Nautical Twilight 5:11 AM CDT 9:22 PM CDT
Astronomical Twilight 4:30 AM CDT 10:03 PM CDT
Moon 7:16 PM CDT (4/24) 5:26 AM CDT (4/24)
Length of Visible Light 14h 55m
Length of Day
13h 53m
Waxing Gibbous, 98% of the Moon is Illuminated
Apr 24
Waxing Gibbous
Apr 25
Full
May 2
Last Quarter
May 9
New
May 17
First Quarter

Hourly Weather History & Observations

Time (CDT) Temp. Windchill Dew Point Humidity Pressure Visibility Wind Dir Wind Speed Gust Speed Precip Events Conditions
12:15 AM 30.2 °F - 23.0 °F 75% 30.11 in 10.0 mi Calm Calm - N/A   Clear
12:35 AM 30.2 °F - 23.0 °F 75% 30.11 in 10.0 mi Calm Calm - N/A   Clear
12:54 AM 30.2 °F - 23.0 °F 75% 30.10 in 10.0 mi Calm Calm - N/A   Clear
1:15 AM 30.2 °F - 23.0 °F 75% 30.11 in 10.0 mi Calm Calm - N/A   Clear
1:35 AM 30.2 °F - 23.0 °F 75% 30.10 in 10.0 mi Calm Calm - N/A   Clear
1:55 AM 30.2 °F - 23.0 °F 75% 30.10 in 10.0 mi Calm Calm - N/A   Clear
2:15 AM 30.2 °F - 24.8 °F 80% 30.10 in 10.0 mi Calm Calm - N/A   Clear
2:35 AM 30.2 °F - 23.0 °F 75% 30.10 in 10.0 mi Calm Calm - N/A   Clear
2:55 AM 30.2 °F 22.6 °F 24.8 °F 80% 30.09 in 10.0 mi SSW 8.1 mph - N/A   Clear
3:15 AM 30.2 °F - 23.0 °F 75% 30.09 in 10.0 mi Calm Calm - N/A   Clear
3:35 AM 30.2 °F - 24.8 °F 80% 30.09 in 10.0 mi Calm Calm - N/A   Clear
3:55 AM 30.2 °F - 24.8 °F 80% 30.08 in 10.0 mi Calm Calm - N/A   Clear
4:15 AM 30.2 °F - 24.8 °F 80% 30.08 in 10.0 mi Calm Calm - N/A   Clear
4:35 AM 30.2 °F - 24.8 °F 80% 30.07 in 10.0 mi Calm Calm - N/A   Clear
4:54 AM 30.2 °F - 24.8 °F 80% 30.07 in 10.0 mi Calm Calm - N/A   Clear
5:15 AM 30.2 °F - 23.0 °F 75% 30.07 in 10.0 mi Calm Calm - N/A   Clear
5:35 AM 30.2 °F - 23.0 °F 75% 30.07 in 10.0 mi Calm Calm - N/A   Clear
5:54 AM 30.2 °F - 23.0 °F 75% 30.06 in 10.0 mi Calm Calm - N/A   Clear
6:15 AM 30.2 °F - 21.2 °F 69% 30.06 in 10.0 mi Calm Calm - N/A   Clear
6:35 AM 30.2 °F - 21.2 °F 69% 30.06 in 10.0 mi Calm Calm - N/A   Clear
6:55 AM 30.2 °F - 23.0 °F 75% 30.06 in 10.0 mi Calm Calm - N/A   Clear
7:15 AM 32.0 °F - 23.0 °F 69% 30.06 in 10.0 mi Calm Calm - N/A   Clear
7:34 AM 33.8 °F - 24.8 °F 70% 30.06 in 10.0 mi Calm Calm - N/A   Clear
7:55 AM 35.6 °F 29.9 °F 23.0 °F 60% 30.06 in 10.0 mi WSW 6.9 mph - N/A   Clear
8:15 AM 37.4 °F 29.8 °F 24.8 °F 60% 30.05 in 10.0 mi WSW 11.5 mph - N/A   Clear
8:35 AM 37.4 °F 30.8 °F 24.8 °F 60% 30.05 in 10.0 mi WSW 9.2 mph - N/A   Clear
8:55 AM 39.2 °F 32.5 °F 24.8 °F 56% 30.05 in 10.0 mi WSW 10.4 mph - N/A   Clear
9:15 AM 41.0 °F 33.5 °F 24.8 °F 53% 30.05 in 10.0 mi WSW 13.8 mph - N/A   Clear
9:34 AM 42.8 °F 36.2 °F 24.8 °F 49% 30.04 in 10.0 mi WSW 12.7 mph - N/A   Clear
9:55 AM 42.8 °F 35.8 °F 24.8 °F 49% 30.04 in 10.0 mi WSW 13.8 mph - N/A   Clear
10:15 AM 42.8 °F 35.4 °F 24.8 °F 49% 30.04 in 10.0 mi WSW 15.0 mph - N/A   Clear
10:34 AM 44.6 °F 39.2 °F 24.8 °F 46% 30.04 in 10.0 mi SW 10.4 mph - N/A   Clear
10:55 AM 46.4 °F 40.7 °F 24.8 °F 43% 30.04 in 10.0 mi SW 12.7 mph 18.4 mph N/A   Clear
11:15 AM 46.4 °F 40.7 °F 24.8 °F 43% 30.03 in 10.0 mi SW 12.7 mph - N/A   Clear
11:35 AM 46.4 °F 39.2 °F 24.8 °F 43% 30.03 in 10.0 mi SW 18.4 mph 21.9 mph N/A   Clear
11:55 AM 46.4 °F 41.1 °F 26.6 °F 46% 30.03 in 10.0 mi SW 11.5 mph 20.7 mph N/A   Clear
12:15 PM 48.2 °F - 24.8 °F 40% 30.03 in 10.0 mi SW 16.1 mph 24.2 mph N/A   Clear
12:35 PM 48.2 °F - 24.8 °F 40% 30.02 in 10.0 mi SSW 18.4 mph 23.0 mph N/A   Clear
12:55 PM 48.2 °F - 21.2 °F 34% 30.01 in 10.0 mi SSW 18.4 mph 24.2 mph N/A   Clear
1:15 PM 48.2 °F - 21.2 °F 34% 30.00 in 10.0 mi SSW 17.3 mph 26.5 mph N/A   Clear
1:35 PM 50.0 °F - 19.4 °F 30% 29.99 in 10.0 mi SSW 19.6 mph 26.5 mph N/A   Clear
1:55 PM 51.8 °F - 23.0 °F 33% 29.98 in 10.0 mi SSW 18.4 mph 27.6 mph N/A   Clear
2:14 PM 51.8 °F - 21.2 °F 30% 29.98 in 10.0 mi SW 21.9 mph 28.8 mph N/A   Clear
2:35 PM 50.0 °F - 19.4 °F 30% 29.98 in 10.0 mi SW 23.0 mph 27.6 mph N/A   Mostly Cloudy
2:55 PM 50.0 °F - 19.4 °F 30% 29.97 in 10.0 mi SSW 20.7 mph 26.5 mph N/A   Overcast
3:15 PM 50.0 °F - 23.0 °F 35% 29.97 in 10.0 mi SSW 21.9 mph 25.3 mph N/A   Overcast
3:35 PM 51.8 °F - 26.6 °F 38% 29.95 in 10.0 mi SSW 12.7 mph 21.9 mph N/A   Overcast
3:55 PM 51.8 °F - 26.6 °F 38% 29.95 in 10.0 mi SW 19.6 mph 23.0 mph N/A   Mostly Cloudy
4:15 PM 53.6 °F - 28.4 °F 38% 29.93 in 10.0 mi SW 18.4 mph - N/A   Overcast
4:35 PM 51.8 °F - 24.8 °F 35% 29.93 in 10.0 mi WSW 18.4 mph - N/A   Mostly Cloudy
4:55 PM 48.2 °F - 28.4 °F 46% 29.95 in 10.0 mi West 24.2 mph 33.4 mph N/A   Overcast
5:15 PM 42.8 °F 33.1 °F 33.8 °F 70% 29.97 in 7.0 mi West 25.3 mph 35.7 mph N/A Rain Light Rain
5:35 PM 41.0 °F 32.8 °F 35.6 °F 81% 29.97 in 10.0 mi WSW 16.1 mph - 0.01 in Rain Light Rain
5:55 PM 42.8 °F 34.3 °F 35.6 °F 76% 29.97 in 10.0 mi West 19.6 mph 24.2 mph 0.02 in   Mostly Cloudy
6:15 PM 41.0 °F 31.6 °F 33.8 °F 76% 29.97 in 10.0 mi West 20.7 mph - N/A   Overcast
6:35 PM 41.0 °F 33.1 °F 33.8 °F 76% 29.97 in 10.0 mi WNW 15.0 mph - N/A   Overcast
6:55 PM 41.0 °F 33.1 °F 33.8 °F 76% 29.98 in 10.0 mi WNW 15.0 mph - N/A   Overcast
7:14 PM 39.2 °F 31.6 °F 32.0 °F 75% 29.99 in 10.0 mi WNW 12.7 mph - N/A   Mostly Cloudy
7:35 PM 41.0 °F 35.8 °F 33.8 °F 76% 29.99 in 10.0 mi West 8.1 mph - N/A   Overcast
7:55 PM 41.0 °F 33.5 °F 33.8 °F 76% 30.00 in 10.0 mi West 13.8 mph - N/A   Mostly Cloudy
8:14 PM 39.2 °F 33.0 °F 32.0 °F 75% 30.00 in 10.0 mi West 9.2 mph - N/A   Scattered Clouds
8:35 PM 39.2 °F 33.0 °F 32.0 °F 75% 30.01 in 10.0 mi West 9.2 mph - N/A   Clear
8:55 PM 37.4 °F 30.3 °F 32.0 °F 81% 30.01 in 10.0 mi West 10.4 mph - N/A   Scattered Clouds
9:55 PM 39.2 °F 29.3 °F 32.0 °F 75% 30.04 in 10.0 mi West 20.7 mph - N/A   Overcast
10:15 PM 37.4 °F 25.9 °F 30.2 °F 75% 30.05 in 10.0 mi WNW 25.3 mph 34.5 mph N/A   Overcast
10:35 PM 37.4 °F 26.9 °F 28.4 °F 70% 30.06 in 10.0 mi WNW 20.7 mph 26.5 mph N/A   Scattered Clouds
10:55 PM 35.6 °F 25.5 °F 28.4 °F 75% 30.06 in 10.0 mi WNW 17.3 mph 27.6 mph N/A   Clear
11:15 PM 35.6 °F 25.9 °F 28.4 °F 75% 30.07 in 10.0 mi WNW 16.1 mph 21.9 mph N/A   Clear
11:35 PM 35.6 °F 26.2 °F 28.4 °F 75% 30.07 in 10.0 mi WNW 15.0 mph - N/A   Clear
11:55 PM 35.6 °F 27.5 °F 28.4 °F 75% 30.08 in 10.0 mi West 11.5 mph - N/A   Clear